Flag for Canada Weather past 2 weeks in Sherbrooke, Quebec, Canada

Now
32 °F

Light snow. Low clouds.


Feels Like: 26 °F
Forecast: 18 / 33 °F
Wind: 6 mph from Southwest

Location: Sherbrooke

Current Time: Mar 27, 2015 at 12:30:26 AM

Latest Report: Mar 26, 2015 at 11:00 PM


Visibility: 4 mi

Pressure: 29.72 "Hg

Humidity: 100%

Dew point: 32 °F

Location of SherbrookeLocation

Historic Weather in Sherbrooke — Graph

°F

Sherbrooke temperature yesterday

Maximum temperature yesterday: 43 °F (at 11:00 AM)
Minimum temperature yesterday: 32 °F (at 6:00 PM)
Average temperature yesterday: 37 °F

Past Weeks' High & Low Weather Summary

 TemperatureHumidityPressure
High46 °F (Mar 25, 4:00 PM)100% (Mar 14, 10:56 PM)30.64 "Hg (Mar 14, 10:56 PM)
Low-6 °F (Mar 20, 6:00 AM)21% (Mar 20, 2:00 PM)29.41 "Hg (Mar 17, 1:00 PM)
Average20 °F69%30.05 "Hg
* Reported Mar 11 10:00 PM — Mar 26 10:47 PM, Sherbrooke, Weather by CustomWeather, © 2015

Note: Actual official high and low records may vary slightly from our data, if they occured in-between our weather recording intervals... More about our weather records

Advertising

Sherbrooke weather history for previous 24 hours

 ConditionsComfort  
Time TempWeatherWind HumidityBarometerVisibility
10:47 PM
Thu, Mar 26
32 °FLight snow. Low clouds.5 mph100%29.73 "Hg3 mi
10:00 PM32 °FLight snow. Mostly cloudy.5 mph100%29.74 "Hg1 mi
9:45 PM32 °FLight snow. Mostly cloudy.3 mph100%29.75 "Hg1 mi
9:00 PM32 °FLight snow. Low clouds.3 mph100%29.75 "Hg1 mi
8:51 PM32 °FLight snow. Low clouds.2 mph100%29.74 "Hg1 mi
8:00 PM32 °FLight snow. Low clouds.5 mph100%29.75 "Hg1 mi
7:03 PM32 °FHeavy snow. Dense fog.2 mph100%29.72 "Hg0 mi
6:00 PM32 °FLight snow. Mostly cloudy.3 mph100%29.72 "Hg1 mi
5:00 PM34 °FLight snow. Low clouds.2 mph93%29.73 "Hg1 mi
4:49 PM34 °FLight snow. Low clouds.3 mph100%29.73 "Hg2 mi
4:02 PM36 °FLight mixture of precip. Low clouds.5 mph93%29.73 "Hg3 mi
3:00 PM37 °FLight rain. Fog.8 mph87%29.75 "Hg4 mi
2:49 PM39 °FLight rain. Mostly cloudy.9 mph81%29.76 "Hg4 mi
2:00 PM41 °FOvercast.8 mph66%29.76 "Hg9 mi
1:00 PM41 °FOvercast.10 mph61%29.78 "Hg9 mi
12:00 PM43 °FPartly sunny.12 mph61%29.78 "Hg9 mi
11:00 AM43 °FOvercast.12 mph61%29.81 "Hg9 mi
10:03 AM39 °FCloudy.7 mph87%29.83 "Hg9 mi
10:00 AM39 °FMostly cloudy.7 mph81%29.83 "Hg9 mi
9:02 AM39 °FLight rain. Mostly cloudy.7 mph81%29.83 "Hg9 mi
8:00 AM39 °FOvercast.9 mph81%29.83 "Hg9 mi
7:00 AM39 °FOvercast.9 mph81%29.81 "Hg9 mi
6:00 AM39 °FOvercast.9 mph81%29.80 "Hg9 mi
5:00 AM39 °FMostly cloudy.13 mph81%29.81 "Hg9 mi
4:00 AM39 °FOvercast.14 mph81%29.82 "Hg9 mi
3:00 AM39 °FOvercast.13 mph75%29.85 "Hg9 mi
2:00 AM39 °FOvercast.13 mph75%29.86 "Hg9 mi
1:00 AM39 °FOvercast.12 mph75%29.87 "Hg9 mi
12:58 AM37 °FOvercast.14 mph81%29.88 "Hg9 mi
12:00 AM37 °FOvercast.13 mph81%29.89 "Hg9 mi
Weather by CustomWeather, © 2015

See weather overviewHow to use our weather pages